Regional Weather Roundup
Issued by NWS

Home | Current Version | Previous Version | Text Only | Print | Product List | Glossary On
Versions: 1 2 3 4 5 6 7 8 9 10 11 12 13 14 15 16 17 18 19 20 21 22 23 24 25 26 27 28 29 30 31 32 33 34 35 36 37 38 39 40 41 42 43 44 45 46 47 48 49 50
000
ASUS44 KFWD 291915
RWRTX
NORTH TEXAS HOURLY WEATHER ROUNDUP
NATIONAL WEATHER SERVICE FORT WORTH TX
200 PM CDT THU SEP 29 2016

NOTE: "FAIR" INDICATES FEW OR NO CLOUDS BELOW 12,000 FEET WITH NO
SIGNIFICANT WEATHER AND/OR OBSTRUCTIONS TO VISIBILITY.

TXZ118-119-292000-
DALLAS/FORT WORTH METROPLEX

CITY           SKY/WX    TMP DP  RH WIND       PRES   REMARKS
DFW AIRPORT    MOSUNNY   77  47  34 N14G22    30.26F
DALLAS LOVE    MOSUNNY   77  49  37 NE10      30.26F
FTW MEACHAM    SUNNY     77  51  40 N12       30.27F
DAL-EXECUTIVE  SUNNY     77  50  38 VRB7      30.25F
FTW-ALLIANCE   MOSUNNY   76  49  38 N8G17     30.28F
FTW-NAS-JRB    MOSUNNY   76  48  37 N12G18    30.28F
FTW-SPINKS     SUNNY     77  48  36 NE10      30.28F
ARLINGTON      SUNNY     75  48  38 NW8G16    30.26F
GRAND PRAIRIE  SUNNY     75  46  35 N9G21     30.28F
ADDISON        SUNNY     75  50  41 N9G18     30.26F
MESQUITE       SUNNY     79  48  34 N12       30.26F
LANCASTER      SUNNY     78  48  35 N10G16    30.26F
$$

TXZ091>094-102>105-117-120-121-131>134-292000-
NORTH CENTRAL TEXAS

CITY           SKY/WX    TMP DP  RH WIND       PRES   REMARKS
SHRMAN/DENISON SUNNY     73  50  44 N12G18    30.30F
GAINESVILLE      N/A     72  49  44 NW9G17    30.31F
BOWIE          SUNNY     73  49  42 NE5       30.31F
BRIDGEPORT     SUNNY     74  50  42 N8        30.32F
DECATUR        SUNNY     74  44  34 N8        30.30F
DENTON         SUNNY     75  48  38 N16       30.28F
MCKINNEY       SUNNY     75  49  39 N15       30.26F
GREENVILLE     SUNNY     75  46  35 N8G18     30.26F
ROCKWALL       SUNNY     73  51  46 NW12G17   30.25F
TERRELL        SUNNY     77  48  35 N12G18    30.25F
WAXAHACHIE     SUNNY     76  50  40 N8G16     30.27F
CLEBURNE       SUNNY     75  48  38 N10       30.28F
GRANBURY       SUNNY     77  49  37 N12       30.28F
$$

TXZ083>090-098>101-113>116-127>130-139>142-154-155-292000-
WESTERN NORTH TEXAS

CITY           SKY/WX    TMP DP  RH WIND       PRES   REMARKS
WICHITA FALLS  MOSUNNY   72  50  45 N13       30.33F
WF-KICKAPOO    SUNNY     72  48  42 N12G20    30.35F
VERNON         SUNNY     73  41  31 N7        30.36F
ABILENE        SUNNY     73  50  44 NE8G20    30.34F
ABILENE-DYESS  SUNNY     73  51  45 NE7       30.32F
CISCO          SUNNY     72  46  40 VRB7G18   30.33F
BRECKENRIDGE     N/A    N/A N/A N/A MISG        N/A
GRAHAM         SUNNY     75  48  38 NW9       30.30F
MINERAL WELLS  SUNNY     74  49  41 NE8       30.28F
STEPHENVILLE   SUNNY     76  44  32 N3        30.32F
COMANCHE       SUNNY     76  48  37 N15       30.31S HAZE
BROWNWOOD      SUNNY     77  46  33 N10       30.29F
COLEMAN        SUNNY     76  47  35 N10       30.31F
$$

TXZ143>147-156>162-174-175-292000-
CENTRAL TEXAS

CITY           SKY/WX    TMP DP  RH WIND       PRES   REMARKS
WACO           SUNNY     81  52  36 N13       30.24F
WACO-MCGREGOR  SUNNY     77  51  40 N8G17     30.24F
HILLSBORO      SUNNY     76  51  41 N10       30.25F
CORSICANA      SUNNY     79  50  36 NW9G21    30.24
MEXIA          SUNNY     76  50  40 N10G20    30.22F
HEARNE         SUNNY     80  54  40 N7G16     30.21F
CAMERON        SUNNY     80  54  39 N10G18    30.21F
TEMPLE         SUNNY     79  52  38 N10G20    30.24F
KILLEEN        SUNNY     77  53  43 NE13      30.23F
KILLEEN-SKYLRK SUNNY     78  54  43 N14       30.24F
FORT HOOD      SUNNY     77  53  43 NE16      30.21F
GATESVILLE     SUNNY     75  52  43 NE8       30.27F
HAMILTON       SUNNY     77  48  36 N10       30.29F
LAMPASAS       SUNNY     78  56  46 N7G17     30.25S
$$

TXZ095>097-106>112-122>126-135>138-148>153-164>167-292000-
EAST TEXAS

CITY           SKY/WX    TMP DP  RH WIND       PRES   REMARKS
PARIS          SUNNY     73  48  40 N10G16    30.26F
SULPHUR SPRNGS SUNNY     76  45  32 N7G17     30.26F
MOUNT PLEASANT SUNNY     75  47  36 N8G16     30.25F
GILMER         SUNNY     73  48  41 N8G16     30.22F
MINEOLA        SUNNY     75  48  38 NE8       30.23F
TYLER          SUNNY     77  46  33 NE12      30.22F
LONGVIEW       SUNNY     76  51  41 NE14      30.20F
MARSHALL       SUNNY     73  48  41 N5G10     30.23F
ATHENS         SUNNY     75  46  35 NE8       30.21F
PALESTINE      SUNNY     78  50  37 N12G17    30.23F
JACKSONVILLE   SUNNY     74  50  43 NW6       30.23F
HENDERSON      SUNNY     74  48  39 N7        30.22F
CENTER         CLEAR     77  48  36 N14       30.20F
NACOGDOCHES    SUNNY     77  54  44 N13       30.18F
LUFKIN         SUNNY     78  53  41 N10       30.18F
$$

SUPPLEMENTAL OBSERVATIONS (CENTRAL)

CITY           SKY/WX    TMP DP  RH WIND       PRES   REMARKS
DENISON DAM      N/A     70  46  43 N13         N/A
CADDO GRASSLND   N/A     75  48  38 N5G13       N/A
PAT MAYSE LAKE   N/A     73  43  33 N10         N/A
GREENVILLE       N/A     75  48  38 N12G20      N/A
CEDAR HILL       N/A     79  50  36 N6G16       N/A
LAKE LIMESTONE   N/A     79  54  41 N12         N/A
MCGREGOR         N/A     79  50  36 N9          N/A
$$

SUPPLEMENTAL OBSERVATIONS (WEST)

CITY           SKY/WX    TMP DP  RH WIND       PRES   REMARKS
LBJ GRASSLAND    N/A     75  46  35 NW7         N/A
COMANCHE         N/A     75  45  33 NE12        N/A
HAMBY            N/A     73  50  43 NE10        N/A
IVIE RESERVOIR   N/A     79  50  36 N6G15       N/A
COLORADO BEND    N/A     79  50  36 E8          N/A
$$

SUPPLEMENTAL OBSERVATIONS (EAST)

CITY           SKY/WX    TMP DP  RH WIND       PRES   REMARKS
CADDO LAKE       N/A     75  48  38 VRB6G14     N/A
HENDERSON        N/A     75  48  38 N9          N/A
N SABINE NF      N/A     79  54  41 MISG        N/A
$$

SUPPLEMENTAL OBSERVATIONS ARE A COLLECTION OF AUTOMATED INSTRUMENTS
THAT ARE MAINTAINED BY A VARIETY OF FEDERAL AND STATE AGENCIES.
CERTAIN ELEMENTS...SUCH AS HUMIDITY VALUES AND SUSTAINED WIND
SPEEDS...MAY BE APPROXIMATED.




USA.gov is the U.S. government's official web portal to all federal, state and local government web resources and services.